Medford, WI

2:35 PM CDT on October 20, 2017 (GMT -0500)
Taylor County

Weather History for KMDZ - September, 2014

Change the Weather History Date:

Tuesday, September 2, 2014

  Actual Average Record
Temperature  
Mean Temperature 62 °F -  
Max Temperature 72 °F 73 °F 89 °F (1953)
Min Temperature 52 °F 51 °F 39 °F (1976)
Degree Days  
Heating Degree Days 3    
Growing Degree Days 12 (Base 50)    
Moisture  
Dew Point 54 °F    
Average Humidity 82    
Maximum Humidity 99    
Minimum Humidity 48    
Precipitation  
Precipitation 0.05 in - - ()
Sea Level Pressure  
Sea Level Pressure 29.88 in    
Wind  
Wind Speed 4 mph (WSW)    
Max Wind Speed 12 mph    
Max Gust Speed 20 mph    
Visibility 10 miles    
Events Rain , Thunderstorm    
Averages and records for this station are not official NWS values.
T = Trace of Precipitation, MM = Missing Value Source: NWS Daily Summary

Daily Weather History Graph

Daily Weather History Graph

Search for Another Location

Airport or City:

Trip Planner

Search our weather history database for the weather conditions in past years. The results will help you decide how hot, cold, wet, or windy it might be!

Date:

Astronomy

Sep. 02, 2014 Rise Set
Actual Time 6:24 AM CDT 7:36 PM CDT
Civil Twilight 5:53 AM CDT 8:06 PM CDT
Nautical Twilight 5:17 AM CDT 8:42 PM CDT
Astronomical Twilight 4:38 AM CDT 9:21 PM CDT
Moon 2:27 PM CDT (9/2) No Moon Set
Length of Visible Light 14h 12m
Length of Day
13h 12m
First Quarter, 53% of the Moon is Illuminated
Sep 2
First Quarter
Sep 8
Full
Sep 15
Last Quarter
Sep 24
New
Oct 1
First Quarter

Hourly Weather History & Observations

Time (CDT) Temp. Dew Point Humidity Pressure Visibility Wind Dir Wind Speed Gust Speed Precip Events Conditions
12:15 AM 55.4 °F 53.6 °F 94% 29.83 in 10.0 mi SW 3.5 mph - N/A   Clear
12:35 AM 56.7 °F 54.0 °F 91% 29.84 in 10.0 mi SW 3.5 mph - N/A   Clear
12:55 AM 54.7 °F 53.1 °F 94% 29.84 in 10.0 mi SSW 3.5 mph - N/A   Clear
1:15 AM 53.8 °F 52.7 °F 96% 29.84 in 10.0 mi South 3.5 mph - N/A   Clear
1:35 AM 53.1 °F 52.2 °F 97% 29.83 in 10.0 mi SSW 4.6 mph - N/A   Clear
1:55 AM 53.8 °F 52.9 °F 97% 29.84 in 10.0 mi SSW 4.6 mph - N/A   Clear
2:15 AM 55.4 °F 53.8 °F 94% 29.84 in 10.0 mi SW 3.5 mph - N/A   Clear
2:35 AM 55.4 °F 53.8 °F 94% 29.84 in 10.0 mi SW 3.5 mph - N/A   Clear
2:55 AM 54.5 °F 53.2 °F 96% 29.84 in 10.0 mi Calm Calm - N/A   Clear
3:15 AM 53.8 °F 53.1 °F 97% 29.84 in 10.0 mi Calm Calm - N/A   Scattered Clouds
3:35 AM 52.7 °F 51.8 °F 97% 29.84 in 10.0 mi Calm Calm - N/A   Scattered Clouds
3:55 AM 52.9 °F 52.5 °F 99% 29.84 in 10.0 mi Calm Calm - N/A   Scattered Clouds
4:15 AM 53.2 °F 52.9 °F 99% 29.84 in 10.0 mi SW 4.6 mph - N/A   Clear
4:35 AM 54.7 °F 54.0 °F 97% 29.84 in 10.0 mi SW 4.6 mph - N/A   Clear
4:55 AM 54.7 °F 53.8 °F 97% 29.83 in 10.0 mi SW 4.6 mph - N/A   Clear
5:15 AM 55.4 °F 54.3 °F 96% 29.84 in 10.0 mi SSW 3.5 mph - N/A   Scattered Clouds
5:35 AM 55.4 °F 54.5 °F 97% 29.84 in 10.0 mi Calm Calm - N/A   Mostly Cloudy
5:55 AM 55.6 °F 54.7 °F 97% 29.84 in 10.0 mi SSW 4.6 mph - N/A   Mostly Cloudy
6:15 AM 56.5 °F 55.4 °F 96% 29.84 in 10.0 mi SSW 4.6 mph - N/A   Overcast
6:35 AM 56.8 °F 55.6 °F 96% 29.85 in 10.0 mi Calm Calm - N/A   Overcast
6:55 AM 56.5 °F 55.6 °F 97% 29.86 in 10.0 mi NW 6.9 mph - N/A Rain , Thunderstorm Light Thunderstorms and Rain
7:15 AM 56.3 °F 55.6 °F 97% 29.86 in 4.0 mi Calm Calm - 0.04 in Rain , Thunderstorm Thunderstorms and Rain
7:35 AM 56.5 °F 55.6 °F 97% 29.86 in 10.0 mi Calm Calm - 0.05 in   Mostly Cloudy
7:55 AM 57.2 °F 56.3 °F 97% 29.87 in 10.0 mi Calm Calm - 0.05 in   Scattered Clouds
8:15 AM 57.7 °F 56.5 °F 96% 29.87 in 10.0 mi WSW 3.5 mph - N/A   Clear
8:35 AM 58.1 °F 57.2 °F 97% 29.88 in 10.0 mi WSW 4.6 mph - N/A   Clear
8:55 AM 58.5 °F 57.4 °F 96% 29.88 in 10.0 mi WSW 5.8 mph - N/A   Scattered Clouds
9:15 AM 59.9 °F 58.1 °F 94% 29.88 in 10.0 mi West 5.8 mph - N/A   Mostly Cloudy
9:35 AM 59.7 °F 58.1 °F 94% 29.89 in 10.0 mi West 6.9 mph - N/A   Overcast
9:55 AM 61.7 °F 59.2 °F 91% 29.89 in 10.0 mi WNW 6.9 mph - N/A   Mostly Cloudy
10:15 AM 63.1 °F 59.0 °F 86% 29.89 in 10.0 mi WNW 5.8 mph - N/A   Scattered Clouds
10:35 AM 64.2 °F 57.9 °F 80% 29.89 in 10.0 mi WNW 6.9 mph - N/A   Clear
10:55 AM 65.8 °F 56.8 °F 73% 29.89 in 10.0 mi WNW 6.9 mph - N/A   Clear
11:15 AM 67.1 °F 56.7 °F 69% 29.89 in 10.0 mi WNW 8.1 mph - N/A   Clear
11:35 AM 68.2 °F 57.0 °F 67% 29.88 in 10.0 mi West 8.1 mph - N/A   Clear
11:55 AM 69.1 °F 57.2 °F 66% 29.88 in 10.0 mi WNW 5.8 mph - N/A   Clear
12:15 PM 70.0 °F 57.2 °F 64% 29.88 in 10.0 mi NW 9.2 mph - N/A   Clear
12:35 PM 70.7 °F 56.1 °F 60% 29.89 in 10.0 mi West 9.2 mph - N/A   Clear
12:55 PM 71.4 °F 55.6 °F 57% 29.89 in 10.0 mi WNW 10.4 mph - N/A   Clear
1:15 PM 71.6 °F 55.2 °F 56% 29.89 in 10.0 mi WSW 9.2 mph - N/A   Scattered Clouds
1:35 PM 71.4 °F 55.4 °F 57% 29.89 in 10.0 mi West 6.9 mph - N/A   Scattered Clouds
1:55 PM 69.4 °F 54.7 °F 59% 29.90 in 10.0 mi West 6.9 mph 19.6 mph N/A   Scattered Clouds
2:15 PM 72.5 °F 55.2 °F 54% 29.90 in 10.0 mi WNW 8.1 mph - N/A   Clear
2:35 PM 72.7 °F 54.3 °F 52% 29.90 in 10.0 mi WSW 10.4 mph - N/A   Scattered Clouds
2:55 PM 70.7 °F 53.4 °F 54% 29.90 in 10.0 mi West 9.2 mph - N/A   Scattered Clouds
3:15 PM 71.8 °F 53.2 °F 52% 29.89 in 10.0 mi West 9.2 mph 17.3 mph N/A   Clear
3:35 PM 72.5 °F 54.0 °F 52% 29.90 in 10.0 mi West 8.1 mph - N/A   Clear
3:55 PM 72.3 °F 53.6 °F 52% 29.90 in 10.0 mi West 8.1 mph - N/A   Scattered Clouds
4:15 PM 72.3 °F 52.3 °F 49% 29.90 in 10.0 mi West 11.5 mph 17.3 mph N/A   Scattered Clouds
4:35 PM 72.1 °F 52.3 °F 50% 29.90 in 10.0 mi WSW 6.9 mph - N/A   Clear
4:55 PM 71.6 °F 50.9 °F 48% 29.90 in 10.0 mi West 8.1 mph - N/A   Clear
5:15 PM 71.6 °F 52.7 °F 51% 29.90 in 10.0 mi West 11.5 mph - N/A   Clear
5:55 PM 70.7 °F 53.2 °F 54% 29.90 in 10.0 mi West 6.9 mph - N/A   Clear
6:15 PM 69.8 °F 54.3 °F 58% 29.90 in 10.0 mi West 4.6 mph - N/A   Clear
6:35 PM 68.9 °F 54.3 °F 60% 29.90 in 10.0 mi WSW 4.6 mph - N/A   Clear
6:55 PM 67.3 °F 54.0 °F 62% 29.89 in 10.0 mi West 4.6 mph - N/A   Clear
7:15 PM 65.8 °F 54.1 °F 66% 29.89 in 10.0 mi West 3.5 mph - N/A   Clear
7:35 PM 65.3 °F 54.0 °F 67% 29.90 in 10.0 mi Calm Calm - N/A   Clear
7:55 PM 60.1 °F 55.6 °F 85% 29.90 in 4.0 mi SW 3.5 mph - N/A   Clear
8:15 PM 58.3 °F 55.0 °F 89% 29.90 in 4.0 mi Calm Calm - N/A   Clear
8:35 PM 55.6 °F 54.7 °F 97% 29.90 in 10.0 mi SSW 3.5 mph - N/A   Clear
8:55 PM 55.4 °F 54.0 °F 95% 29.90 in 10.0 mi Calm Calm - N/A   Clear
9:15 PM 54.5 °F 53.4 °F 96% 29.91 in 10.0 mi Calm Calm - N/A   Clear
9:35 PM 53.4 °F 52.7 °F 97% 29.91 in 10.0 mi Calm Calm - N/A   Clear
9:55 PM 52.7 °F 52.3 °F 99% 29.91 in 10.0 mi Calm Calm - N/A   Clear
10:15 PM 53.1 °F 52.7 °F 99% 29.91 in 10.0 mi Calm Calm - N/A   Clear
10:35 PM 53.6 °F 53.2 °F 99% 29.91 in 10.0 mi Calm Calm - N/A   Clear
10:55 PM 53.2 °F 52.5 °F 97% 29.91 in 10.0 mi SSW 3.5 mph - N/A   Clear
11:15 PM 52.7 °F 51.8 °F 97% 29.91 in 10.0 mi South 3.5 mph - N/A   Clear
11:35 PM 53.6 °F 52.7 °F 97% 29.92 in 10.0 mi SSW 3.5 mph - N/A   Clear
11:55 PM 53.4 °F 52.0 °F 95% 29.92 in 10.0 mi Calm Calm - N/A   Clear